Waterford Township, MI

3:36 PM EST on February 11, 2016 (GMT -0500)
Oakland County International

Weather History for KPTK - October, 2011

Change the Weather History Date:

Thursday, October 13, 2011

  Actual Average Record
Temperature  
Mean Temperature 60 °F -  
Max Temperature 64 °F 58 °F 78 °F (2008)
Min Temperature 55 °F 40 °F 30 °F (2012)
Degree Days  
Heating Degree Days 6    
Growing Degree Days 10 (Base 50)    
Moisture  
Dew Point 55 °F    
Average Humidity 85    
Maximum Humidity 100    
Minimum Humidity 67    
Precipitation  
Precipitation 0.00 in - - ()
Sea Level Pressure  
Sea Level Pressure 29.61 in    
Wind  
Wind Speed 2 mph (SSE)    
Max Wind Speed 10 mph    
Max Gust Speed -    
Visibility 6 miles    
Events      
Averages and records for this station are not official NWS values.
T = Trace of Precipitation, MM = Missing Value Source: NWS Daily Summary

Daily Weather History Graph

Daily Weather History Graph

Search for Another Location

Airport or City:

Trip Planner

Search our weather history database for the weather conditions in past years. The results will help you decide how hot, cold, wet, or windy it might be!

Date:

Astronomy

Oct. 13, 2011 Rise Set
Actual Time 7:44 AM EDT 6:55 PM EDT
Civil Twilight 7:15 AM EDT 7:23 PM EDT
Nautical Twilight 6:43 AM EDT 7:56 PM EDT
Astronomical Twilight 6:10 AM EDT 8:28 PM EDT
Moon 7:26 PM EDT (10/13) 9:18 AM EDT (10/13)
Length of Visible Light 12h 07m
Length of Day
11h 10m
Full, 98% of the Moon is Illuminated
Oct 13
Full
Oct 19
Last Quarter
Oct 26
New
Nov 2
First Quarter
Nov 10
Full

Hourly Weather History & Observations

Time (EDT) Temp. Dew Point Humidity Pressure Visibility Wind Dir Wind Speed Gust Speed Precip Events Conditions
12:53 AM 57.0 °F 54.0 °F 89% 29.72 in 7.0 mi Calm Calm - 0.00 in   Overcast
1:00 AM 57.2 °F 55.4 °F 94% 29.72 in 6.0 mi Calm Calm - N/A   Overcast
1:40 AM 57.2 °F 55.4 °F 94% 29.71 in 4.0 mi Calm Calm - N/A   Overcast
1:53 AM 57.0 °F 54.0 °F 89% 29.70 in 5.0 mi Calm Calm - N/A   Overcast
2:53 AM 57.0 °F 55.0 °F 93% 29.70 in 5.0 mi Calm Calm - N/A   Overcast
3:53 AM 57.0 °F 55.0 °F 93% 29.68 in 5.0 mi Calm Calm - N/A   Overcast
4:04 AM 57.2 °F 55.4 °F 94% 29.68 in 5.0 mi Calm Calm - N/A   Overcast
4:42 AM 57.2 °F 55.4 °F 94% 29.68 in 4.0 mi Calm Calm - N/A   Overcast
4:50 AM 57.2 °F 55.4 °F 94% 29.67 in 4.0 mi Calm Calm - N/A   Overcast
4:53 AM 57.0 °F 55.0 °F 93% 29.68 in 4.0 mi South 3.5 mph - N/A   Overcast
5:05 AM 57.2 °F 55.4 °F 94% 29.68 in 4.0 mi South 3.5 mph - N/A   Overcast
5:36 AM 57.2 °F 53.6 °F 88% 29.67 in 4.0 mi SSW 3.5 mph - 0.00 in   Overcast
5:53 AM 57.0 °F 54.0 °F 89% 29.67 in 5.0 mi Calm Calm - 0.00 in   Overcast
6:11 AM 57.2 °F 55.4 °F 94% 29.67 in 5.0 mi Calm Calm - N/A   Mostly Cloudy
6:53 AM 55.9 °F 54.0 °F 93% 29.66 in 4.0 mi Calm Calm - N/A   Overcast
7:27 AM 55.4 °F 53.6 °F 94% 29.66 in 4.0 mi SSE 4.6 mph - N/A   Mostly Cloudy
7:53 AM 55.9 °F 54.0 °F 93% 29.66 in 3.0 mi South 3.5 mph - N/A   Overcast
8:09 AM 55.4 °F 55.4 °F 100% 29.66 in 2.5 mi South 3.5 mph - N/A   Overcast
8:53 AM 55.9 °F 55.0 °F 97% 29.66 in 2.5 mi Calm Calm - N/A   Mostly Cloudy
9:10 AM 57.2 °F 55.4 °F 94% 29.65 in 3.0 mi Calm Calm - N/A   Mostly Cloudy
9:53 AM 57.9 °F 55.0 °F 90% 29.64 in 4.0 mi Calm Calm - N/A   Mostly Cloudy
10:20 AM 57.2 °F 55.4 °F 94% 29.64 in 5.0 mi SE 6.9 mph - N/A   Overcast
10:53 AM 59.0 °F 55.0 °F 87% 29.64 in 5.0 mi SSE 4.6 mph - N/A   Mostly Cloudy
11:06 AM 59.0 °F 53.6 °F 82% 29.64 in 5.0 mi SSE 6.9 mph - N/A   Haze
11:36 AM 59.0 °F 55.4 °F 88% 29.63 in 6.0 mi SSW 4.6 mph - N/A   Overcast
11:48 AM 60.8 °F 55.4 °F 82% 29.63 in 6.0 mi SSE 5.8 mph - N/A   Haze
11:53 AM 60.1 °F 54.0 °F 80% 29.62 in 6.0 mi SSE 6.9 mph - N/A   Haze
12:01 PM 60.8 °F 55.4 °F 82% 29.62 in 6.0 mi South 5.8 mph - N/A   Haze
12:40 PM 60.8 °F 55.4 °F 82% 29.62 in 6.0 mi SSE 4.6 mph - N/A   Haze
12:53 PM 61.0 °F 55.0 °F 81% 29.61 in 7.0 mi SE 5.8 mph - N/A   Mostly Cloudy
1:00 PM 62.6 °F 55.4 °F 77% 29.61 in 7.0 mi ESE 6.9 mph - N/A   Mostly Cloudy
1:53 PM 62.1 °F 54.0 °F 75% 29.58 in 9.0 mi South 8.1 mph - N/A   Mostly Cloudy
2:12 PM 62.6 °F 55.4 °F 77% 29.57 in 10.0 mi South 6.9 mph - N/A   Mostly Cloudy
2:53 PM 64.0 °F 54.0 °F 70% 29.55 in 10.0 mi South 9.2 mph - N/A   Mostly Cloudy
3:53 PM 64.0 °F 53.1 °F 67% 29.53 in 10.0 mi SE 8.1 mph - N/A   Mostly Cloudy
4:53 PM 64.0 °F 53.1 °F 67% 29.51 in 10.0 mi SSE 4.6 mph - N/A   Mostly Cloudy
5:53 PM 63.0 °F 53.1 °F 70% 29.49 in 10.0 mi SE 6.9 mph - N/A   Mostly Cloudy
6:53 PM 63.0 °F 53.1 °F 70% 29.48 in 10.0 mi ESE 4.6 mph - N/A   Mostly Cloudy
7:53 PM 61.0 °F 54.0 °F 78% 29.47 in 10.0 mi ESE 3.5 mph - N/A   Mostly Cloudy
8:53 PM 61.0 °F 55.0 °F 81% 29.47 in 10.0 mi SE 6.9 mph - N/A   Overcast
9:53 PM 60.1 °F 53.1 °F 78% 29.45 in 10.0 mi SE 10.4 mph - N/A   Overcast
10:20 PM 60.8 °F 53.6 °F 77% 29.44 in 10.0 mi SE 8.1 mph - N/A   Overcast
10:53 PM 59.0 °F 54.0 °F 83% 29.42 in 10.0 mi SE 4.6 mph - N/A   Overcast
11:36 PM 59.0 °F 53.6 °F 82% 29.41 in 10.0 mi ESE 6.9 mph - N/A   Overcast
11:53 PM 59.0 °F 54.0 °F 83% 29.40 in 10.0 mi SE 4.6 mph - N/A   Overcast